Check out our new BloomSky Weather System.

Active alerts


No alerts


Thunder radar  blitzortung!


Rain radar more information rain snow radar


Visit our other weather sites:

Template documentation
and downloads

And another site



Weather Underground History page Text

Daily Summary for October 11, 2017 Units:  English    Metric   Both
« Previous Day
Next Day »
Daily Weekly Monthly Yearly Custom
  High: Low: Average:
Temperature: 81.9 °F 61.2 °F 70.2 °F
Dew Point: 60.8 °F 53.8 °F 57.2 °F
Humidity: 79 % 44 % 64 %
Wind Speed: 7.0 mph 0.0 mph 2.2 mph
Wind Gust: 12.0 mph - -
Wind:- - WNW
Pressure: 30.16 in 30.05 in -
Precipitation: 0.00 in    
Historical Graphs
 
 
Tabular Data for October 11, 2017
Time Temperature Dew Point Pressure Wind Wind Speed Wind Gust Humidity Rainfall Rate (Hourly)
00:03 67.5 °F 55.8 °F 30.11 in NNW 4.0 mph 9.0 mph 66 % 0.00 in
00:08 67.5 °F 55.8 °F 30.11 in NNW 6.0 mph 9.0 mph 66 % 0.00 in
00:13 67.5 °F 55.8 °F 30.11 in West 5.0 mph 10.0 mph 66 % 0.00 in
00:18 67.5 °F 55.8 °F 30.10 in NW 3.0 mph 10.0 mph 66 % 0.00 in
00:23 67.5 °F 55.8 °F 30.10 in NW 1.0 mph 10.0 mph 66 % 0.00 in
00:28 67.5 °F 55.8 °F 30.11 in WNW 3.0 mph 10.0 mph 66 % 0.00 in
00:33 67.5 °F 55.8 °F 30.10 in North 2.0 mph 8.0 mph 66 % 0.00 in
00:39 67.5 °F 55.8 °F 30.10 in NW 4.0 mph 8.0 mph 66 % 0.00 in
00:44 67.3 °F 55.6 °F 30.09 in NW 3.0 mph 10.0 mph 66 % 0.00 in
00:49 67.3 °F 55.6 °F 30.09 in NNW 5.0 mph 10.0 mph 66 % 0.00 in
00:54 67.3 °F 55.6 °F 30.09 in NNW 7.0 mph 11.0 mph 66 % 0.00 in
00:59 67.3 °F 55.6 °F 30.09 in NNW 5.0 mph 11.0 mph 66 % 0.00 in
01:04 67.3 °F 55.9 °F 30.09 in NW 2.0 mph 11.0 mph 67 % 0.00 in
01:09 67.3 °F 55.6 °F 30.09 in WNW 2.0 mph 11.0 mph 66 % 0.00 in
01:14 67.3 °F 55.9 °F 30.09 in NW 2.0 mph 11.0 mph 67 % 0.00 in
01:19 67.1 °F 55.8 °F 30.09 in ESE 2.0 mph 11.0 mph 67 % 0.00 in
01:24 67.1 °F 55.8 °F 30.10 in NW 2.0 mph 9.0 mph 67 % 0.00 in
01:29 66.9 °F 55.6 °F 30.09 in NW 1.0 mph 9.0 mph 67 % 0.00 in
01:34 66.7 °F 55.4 °F 30.09 in Calm   9.0 mph 67 % 0.00 in
01:39 66.7 °F 55.4 °F 30.10 in NW 3.0 mph 7.0 mph 67 % 0.00 in
01:44 66.7 °F 55.4 °F 30.10 in WNW 1.0 mph 8.0 mph 67 % 0.00 in
01:49 66.6 °F 55.2 °F 30.10 in NNW 2.0 mph 8.0 mph 67 % 0.00 in
01:54 66.6 °F 55.2 °F 30.10 in WSW 2.0 mph 8.0 mph 67 % 0.00 in
01:59 66.6 °F 55.2 °F 30.09 in NE 3.0 mph 8.0 mph 67 % 0.00 in
02:04 66.4 °F 55.0 °F 30.09 in NNW 2.0 mph 9.0 mph 67 % 0.00 in
02:09 66.4 °F 55.0 °F 30.09 in NNW 6.0 mph 9.0 mph 67 % 0.00 in
02:14 66.2 °F 55.4 °F 30.09 in NNW 5.0 mph 9.0 mph 68 % 0.00 in
02:19 66.0 °F 55.2 °F 30.10 in NW 5.0 mph 11.0 mph 68 % 0.00 in
02:24 66.0 °F 55.2 °F 30.10 in NNW 3.0 mph 11.0 mph 68 % 0.00 in
02:29 65.8 °F 55.0 °F 30.10 in NNW 5.0 mph 11.0 mph 68 % 0.00 in
02:34 65.8 °F 55.4 °F 30.10 in WNW 4.0 mph 8.0 mph 69 % 0.00 in
02:44 65.7 °F 55.2 °F 30.10 in NW 1.0 mph 8.0 mph 69 % 0.00 in
02:49 65.7 °F 55.2 °F 30.10 in NNW 4.0 mph 8.0 mph 69 % 0.00 in
02:54 65.5 °F 55.0 °F 30.10 in WNW 2.0 mph 8.0 mph 69 % 0.00 in
02:59 65.5 °F 55.0 °F 30.10 in NNW 4.0 mph 8.0 mph 69 % 0.00 in
03:04 65.5 °F 55.0 °F 30.10 in NW 3.0 mph 8.0 mph 69 % 0.00 in
03:09 65.3 °F 55.2 °F 30.10 in WNW 3.0 mph 8.0 mph 70 % 0.00 in
03:14 65.1 °F 55.0 °F 30.10 in NW 4.0 mph 8.0 mph 70 % 0.00 in
03:19 65.1 °F 55.0 °F 30.10 in NNW 3.0 mph 8.0 mph 70 % 0.00 in
03:24 64.9 °F 54.9 °F 30.10 in NNW 2.0 mph 8.0 mph 70 % 0.00 in
03:29 64.9 °F 55.4 °F 30.10 in NNW 2.0 mph 8.0 mph 71 % 0.00 in
03:34 64.8 °F 55.2 °F 30.10 in NW 2.0 mph 9.0 mph 71 % 0.00 in
03:39 64.8 °F 55.2 °F 30.09 in WNW 1.0 mph 9.0 mph 71 % 0.00 in
03:45 64.6 °F 55.0 °F 30.09 in WNW 6.0 mph 9.0 mph 71 % 0.00 in
03:49 64.6 °F 55.0 °F 30.09 in North 3.0 mph 9.0 mph 71 % 0.00 in
03:54 64.4 °F 54.9 °F 30.09 in NNW 3.0 mph 9.0 mph 71 % 0.00 in
04:00 64.2 °F 54.7 °F 30.09 in NW 3.0 mph 8.0 mph 71 % 0.00 in
04:04 64.2 °F 55.0 °F 30.10 in NNW 1.0 mph 8.0 mph 72 % 0.00 in
04:09 64.2 °F 55.0 °F 30.09 in NW 1.0 mph 8.0 mph 72 % 0.00 in
04:15 64.0 °F 54.5 °F 30.10 in NNW 3.0 mph 8.0 mph 71 % 0.00 in
04:20 64.0 °F 54.9 °F 30.10 in WSW 1.0 mph 8.0 mph 72 % 0.00 in
04:25 64.0 °F 54.9 °F 30.10 in WNW 4.0 mph 8.0 mph 72 % 0.00 in
04:30 63.9 °F 54.7 °F 30.09 in NW 3.0 mph 8.0 mph 72 % 0.00 in
04:35 63.9 °F 54.7 °F 30.09 in NW 3.0 mph 8.0 mph 72 % 0.00 in
04:40 63.7 °F 54.9 °F 30.09 in West 2.0 mph 10.0 mph 73 % 0.00 in
04:45 63.7 °F 54.9 °F 30.09 in NNW 3.0 mph 10.0 mph 73 % 0.00 in
04:50 63.7 °F 54.9 °F 30.09 in WNW 5.0 mph 10.0 mph 73 % 0.00 in
04:55 63.5 °F 54.7 °F 30.10 in WNW 1.0 mph 9.0 mph 73 % 0.00 in
05:00 63.3 °F 54.5 °F 30.09 in NW 3.0 mph 7.0 mph 73 % 0.00 in
05:10 63.3 °F 54.5 °F 30.10 in WNW 5.0 mph 7.0 mph 73 % 0.00 in
05:15 63.1 °F 54.7 °F 30.10 in NNW 5.0 mph 7.0 mph 74 % 0.00 in
05:20 63.0 °F 54.5 °F 30.10 in NW 4.0 mph 8.0 mph 74 % 0.00 in
05:30 63.0 °F 55.2 °F 30.10 in Calm   8.0 mph 76 % 0.00 in
05:35 62.8 °F 54.7 °F 30.10 in NW 2.0 mph 11.0 mph 75 % 0.00 in
05:40 62.8 °F 54.7 °F 30.10 in NNW 3.0 mph 11.0 mph 75 % 0.00 in
05:45 62.6 °F 54.9 °F 30.10 in NNW 2.0 mph 11.0 mph 76 % 0.00 in
05:50 62.4 °F 54.7 °F 30.11 in NW 1.0 mph 7.0 mph 76 % 0.00 in
05:55 62.4 °F 54.7 °F 30.11 in WNW 3.0 mph 7.0 mph 76 % 0.00 in
06:00 62.2 °F 54.5 °F 30.11 in NW 2.0 mph 7.0 mph 76 % 0.00 in
06:05 62.2 °F 54.5 °F 30.11 in NW 4.0 mph 9.0 mph 76 % 0.00 in
06:10 62.2 °F 54.5 °F 30.11 in NNW 3.0 mph 9.0 mph 76 % 0.00 in
06:15 62.1 °F 54.7 °F 30.11 in NW 1.0 mph 9.0 mph 77 % 0.00 in
06:20 62.1 °F 54.7 °F 30.11 in WNW 6.0 mph 6.0 mph 77 % 0.00 in
06:25 61.9 °F 54.7 °F 30.12 in NNW 4.0 mph 6.0 mph 77 % 0.00 in
06:30 61.9 °F 54.7 °F 30.12 in WNW 4.0 mph 9.0 mph 77 % 0.00 in
06:40 61.5 °F 54.3 °F 30.12 in Calm   9.0 mph 77 % 0.00 in
06:45 61.5 °F 54.7 °F 30.12 in NW 2.0 mph 6.0 mph 78 % 0.00 in
06:50 61.3 °F 54.5 °F 30.12 in North 4.0 mph 6.0 mph 78 % 0.00 in
06:55 61.3 °F 54.5 °F 30.12 in WNW 4.0 mph 6.0 mph 78 % 0.00 in
07:00 61.3 °F 54.1 °F 30.12 in NNW 1.0 mph 10.0 mph 77 % 0.00 in
07:05 61.3 °F 54.5 °F 30.13 in WNW 3.0 mph 10.0 mph 78 % 0.00 in
07:10 61.3 °F 54.5 °F 30.13 in NW 2.0 mph 10.0 mph 78 % 0.00 in
07:15 61.2 °F 54.3 °F 30.13 in NW 1.0 mph 7.0 mph 78 % 0.00 in
07:20 61.2 °F 54.3 °F 30.12 in ENE 1.0 mph 7.0 mph 78 % 0.00 in
07:25 61.2 °F 54.3 °F 30.13 in NW 3.0 mph 8.0 mph 78 % 0.00 in
07:30 61.2 °F 54.3 °F 30.13 in Calm   8.0 mph 78 % 0.00 in
07:35 61.2 °F 54.0 °F 30.13 in WNW 2.0 mph 10.0 mph 77 % 0.00 in
07:40 61.2 °F 54.0 °F 30.13 in NW 1.0 mph 10.0 mph 77 % 0.00 in
07:45 61.2 °F 54.0 °F 30.13 in Calm   10.0 mph 77 % 0.00 in
07:50 61.2 °F 54.0 °F 30.13 in NW 2.0 mph 10.0 mph 77 % 0.00 in
07:55 61.2 °F 54.0 °F 30.13 in NNW 3.0 mph 5.0 mph 77 % 0.00 in
08:00 61.2 °F 54.0 °F 30.14 in East 2.0 mph 5.0 mph 77 % 0.00 in
08:05 61.3 °F 54.1 °F 30.14 in NW 1.0 mph 5.0 mph 77 % 0.00 in
08:10 61.3 °F 53.8 °F 30.14 in North 2.0 mph 6.0 mph 76 % 0.00 in
08:15 61.5 °F 54.0 °F 30.14 in NW 2.0 mph 6.0 mph 76 % 0.00 in
08:20 61.9 °F 54.3 °F 30.14 in NW 1.0 mph 6.0 mph 76 % 0.00 in
08:25 62.1 °F 54.0 °F 30.14 in WNW 2.0 mph 6.0 mph 75 % 0.00 in
08:30 62.2 °F 54.1 °F 30.14 in Calm   9.0 mph 75 % 0.00 in
08:33 62.4 °F 54.3 °F 30.15 in WNW 3.0 mph 9.0 mph 75 % 0.00 in
08:38 62.6 °F 54.1 °F 30.15 in NW 2.0 mph 9.0 mph 74 % 0.00 in
08:43 62.8 °F 54.3 °F 30.15 in West 1.0 mph 9.0 mph 74 % 0.00 in
08:48 62.8 °F 54.0 °F 30.15 in NNW 3.0 mph 8.0 mph 73 % 0.00 in
08:49 62.8 °F 54.3 °F 30.15 in WSW 1.0 mph 8.0 mph 74 % 0.00 in
08:54 63.1 °F 54.3 °F 30.15 in NW 3.0 mph 10.0 mph 73 % 0.00 in
08:59 63.1 °F 54.3 °F 30.15 in NW 2.0 mph 10.0 mph 73 % 0.00 in
09:04 63.3 °F 54.1 °F 30.15 in North 4.0 mph 10.0 mph 72 % 0.00 in
09:09 63.5 °F 54.3 °F 30.15 in NW 4.0 mph 9.0 mph 72 % 0.00 in
09:14 63.7 °F 54.1 °F 30.15 in WNW 2.0 mph 9.0 mph 71 % 0.00 in
09:19 64.2 °F 55.0 °F 30.15 in East 4.0 mph 12.0 mph 72 % 0.00 in
09:24 64.2 °F 55.0 °F 30.15 in WNW 2.0 mph 12.0 mph 72 % 0.00 in
09:29 64.4 °F 54.9 °F 30.15 in NNW 2.0 mph 12.0 mph 71 % 0.00 in
09:34 64.8 °F 54.7 °F 30.16 in NW 3.0 mph 11.0 mph 70 % 0.00 in
09:39 64.9 °F 54.9 °F 30.16 in NW 2.0 mph 9.0 mph 70 % 0.00 in
09:44 65.1 °F 55.4 °F 30.16 in NW 4.0 mph 9.0 mph 71 % 0.00 in
09:49 65.5 °F 55.4 °F 30.15 in WNW 3.0 mph 9.0 mph 70 % 0.00 in
09:54 65.7 °F 54.9 °F 30.16 in NW 3.0 mph 8.0 mph 68 % 0.00 in
09:59 66.0 °F 55.9 °F 30.15 in WNW 2.0 mph 8.0 mph 70 % 0.00 in
10:04 66.2 °F 55.4 °F 30.16 in NW 3.0 mph 7.0 mph 68 % 0.00 in
10:09 66.4 °F 55.0 °F 30.16 in NW 4.0 mph 9.0 mph 67 % 0.00 in
10:10 66.4 °F 55.6 °F 30.16 in NW 2.0 mph 9.0 mph 68 % 0.00 in
10:15 66.7 °F 55.8 °F 30.16 in West 3.0 mph 9.0 mph 68 % 0.00 in
10:20 67.3 °F 55.9 °F 30.16 in NW 2.0 mph 9.0 mph 67 % 0.00 in
10:25 67.5 °F 55.8 °F 30.16 in WNW 3.0 mph 7.0 mph 66 % 0.00 in
10:30 67.5 °F 55.8 °F 30.16 in North 5.0 mph 7.0 mph 66 % 0.00 in
10:35 67.3 °F 55.9 °F 30.16 in WNW 4.0 mph 8.0 mph 67 % 0.00 in
10:40 67.6 °F 55.9 °F 30.16 in NNW 2.0 mph 8.0 mph 66 % 0.00 in
10:45 68.4 °F 57.0 °F 30.16 in WNW 1.0 mph 8.0 mph 67 % 0.00 in
10:50 68.5 °F 55.9 °F 30.16 in NNW 2.0 mph 8.0 mph 64 % 0.00 in
10:55 68.9 °F 55.8 °F 30.15 in NNW 1.0 mph 7.0 mph 63 % 0.00 in
11:00 69.1 °F 56.8 °F 30.15 in WNW 1.0 mph 8.0 mph 65 % 0.00 in
11:05 69.6 °F 56.5 °F 30.15 in NE 3.0 mph 8.0 mph 63 % 0.00 in
11:10 69.8 °F 57.0 °F 30.15 in NW 5.0 mph 8.0 mph 64 % 0.00 in
11:16 69.6 °F 56.8 °F 30.15 in WNW 1.0 mph 8.0 mph 64 % 0.00 in
11:26 70.5 °F 57.4 °F 30.15 in NW 3.0 mph 8.0 mph 63 % 0.00 in
11:31 70.9 °F 57.7 °F 30.14 in NW 6.0 mph 8.0 mph 63 % 0.00 in
11:36 71.2 °F 56.7 °F 30.14 in NW 4.0 mph 8.0 mph 60 % 0.00 in
11:41 71.4 °F 56.8 °F 30.14 in NNE 5.0 mph 8.0 mph 60 % 0.00 in
11:46 71.2 °F 57.0 °F 30.14 in NNW 4.0 mph 10.0 mph 61 % 0.00 in
11:51 71.6 °F 57.0 °F 30.14 in NNW 3.0 mph 10.0 mph 60 % 0.00 in
11:56 72.3 °F 57.2 °F 30.14 in NW 2.0 mph 10.0 mph 59 % 0.00 in
12:01 72.7 °F 57.0 °F 30.14 in NW 2.0 mph 8.0 mph 58 % 0.00 in
12:06 72.7 °F 57.0 °F 30.14 in NW 3.0 mph 8.0 mph 58 % 0.00 in
12:11 72.9 °F 57.7 °F 30.14 in North 3.0 mph 8.0 mph 59 % 0.00 in
12:16 73.2 °F 58.1 °F 30.14 in NW 2.0 mph 9.0 mph 59 % 0.00 in
12:21 73.8 °F 57.6 °F 30.14 in NW 3.0 mph 9.0 mph 57 % 0.00 in
12:26 73.9 °F 58.6 °F 30.13 in West 1.0 mph 9.0 mph 59 % 0.00 in
12:31 74.3 °F 58.1 °F 30.13 in NNW 4.0 mph 7.0 mph 57 % 0.00 in
12:36 74.8 °F 58.1 °F 30.13 in North 3.0 mph 9.0 mph 56 % 0.00 in
12:41 74.8 °F 57.6 °F 30.13 in NW 4.0 mph 9.0 mph 55 % 0.00 in
12:46 75.2 °F 58.5 °F 30.13 in NNW 2.0 mph 9.0 mph 56 % 0.00 in
12:51 75.6 °F 58.3 °F 30.12 in NW 4.0 mph 7.0 mph 55 % 0.00 in
12:56 75.6 °F 58.3 °F 30.12 in NW 4.0 mph 8.0 mph 55 % 0.00 in
13:06 76.3 °F 57.9 °F 30.12 in North 3.0 mph 8.0 mph 53 % 0.00 in
13:11 76.5 °F 58.6 °F 30.12 in NE 2.0 mph 7.0 mph 54 % 0.00 in
13:16 76.6 °F 59.2 °F 30.12 in NNW 2.0 mph 7.0 mph 55 % 0.00 in
13:21 76.8 °F 57.9 °F 30.11 in West 2.0 mph 7.0 mph 52 % 0.00 in
13:26 77.0 °F 58.1 °F 30.11 in NW 2.0 mph 7.0 mph 52 % 0.00 in
13:31 77.7 °F 59.7 °F 30.11 in ENE 3.0 mph 7.0 mph 54 % 0.00 in
13:36 77.7 °F 57.6 °F 30.11 in North 1.0 mph 7.0 mph 50 % 0.00 in
13:41 77.5 °F 57.4 °F 30.10 in NNW 2.0 mph 8.0 mph 50 % 0.00 in
13:46 77.4 °F 58.3 °F 30.10 in NW 3.0 mph 8.0 mph 52 % 0.00 in
13:51 77.9 °F 57.7 °F 30.10 in NNW 5.0 mph 10.0 mph 50 % 0.00 in
13:56 77.9 °F 56.1 °F 30.10 in WNW 2.0 mph 10.0 mph 47 % 0.00 in
14:01 78.1 °F 56.3 °F 30.09 in North 3.0 mph 10.0 mph 47 % 0.00 in
14:06 78.3 °F 58.1 °F 30.09 in NNW 4.0 mph 8.0 mph 50 % 0.00 in
14:11 78.8 °F 58.6 °F 30.09 in North 5.0 mph 8.0 mph 50 % 0.00 in
14:16 78.6 °F 56.7 °F 30.09 in WNW 4.0 mph 8.0 mph 47 % 0.00 in
14:21 79.0 °F 57.0 °F 30.09 in NW 3.0 mph 12.0 mph 47 % 0.00 in
14:27 79.2 °F 57.7 °F 30.08 in West 2.0 mph 12.0 mph 48 % 0.00 in
14:37 79.0 °F 59.4 °F 30.08 in NW 4.0 mph 9.0 mph 51 % 0.00 in
14:42 79.2 °F 57.7 °F 30.08 in WNW 3.0 mph 9.0 mph 48 % 0.00 in
14:47 79.3 °F 57.9 °F 30.08 in NW 4.0 mph 8.0 mph 48 % 0.00 in
14:52 79.9 °F 57.2 °F 30.08 in NNW 2.0 mph 8.0 mph 46 % 0.00 in
14:57 80.1 °F 56.8 °F 30.08 in WNW 1.0 mph 8.0 mph 45 % 0.00 in
15:02 79.9 °F 57.9 °F 30.08 in NNE 2.0 mph 8.0 mph 47 % 0.00 in
15:07 80.2 °F 57.6 °F 30.07 in North 6.0 mph 7.0 mph 46 % 0.00 in
15:12 80.1 °F 57.4 °F 30.07 in Calm   8.0 mph 46 % 0.00 in
15:17 80.8 °F 58.6 °F 30.07 in NW 4.0 mph 8.0 mph 47 % 0.00 in
15:22 81.0 °F 58.8 °F 30.07 in NW 4.0 mph 8.0 mph 47 % 0.00 in
15:27 81.1 °F 58.5 °F 30.06 in NW 2.0 mph 8.0 mph 46 % 0.00 in
15:32 81.1 °F 57.7 °F 30.06 in NW 2.0 mph 8.0 mph 45 % 0.00 in
15:37 81.5 °F 57.6 °F 30.06 in NW 5.0 mph 5.0 mph 44 % 0.00 in
15:42 81.1 °F 57.7 °F 30.06 in North 2.0 mph 6.0 mph 45 % 0.00 in
15:47 80.6 °F 57.9 °F 30.06 in NW 6.0 mph 7.0 mph 46 % 0.00 in
15:52 81.0 °F 57.6 °F 30.06 in NW 2.0 mph 7.0 mph 45 % 0.00 in
15:57 81.3 °F 58.6 °F 30.06 in NNW 2.0 mph 7.0 mph 46 % 0.00 in
15:58 81.3 °F 59.2 °F 30.06 in ENE 3.0 mph 7.0 mph 47 % 0.00 in
16:08 81.5 °F 59.4 °F 30.06 in NNW 2.0 mph 7.0 mph 47 % 0.00 in
16:13 81.9 °F 58.5 °F 30.06 in NW 5.0 mph 7.0 mph 45 % 0.00 in
16:18 81.7 °F 58.3 °F 30.06 in NW 3.0 mph 7.0 mph 45 % 0.00 in
16:23 81.3 °F 57.4 °F 30.06 in NW 1.0 mph 6.0 mph 44 % 0.00 in
16:29 81.3 °F 57.4 °F 30.06 in NNW 1.0 mph 6.0 mph 44 % 0.00 in
16:34 81.1 °F 58.5 °F 30.06 in Calm   6.0 mph 46 % 0.00 in
16:39 81.3 °F 59.2 °F 30.06 in NNW 2.0 mph 6.0 mph 47 % 0.00 in
16:44 81.7 °F 59.5 °F 30.06 in NNW 2.0 mph 6.0 mph 47 % 0.00 in
16:49 81.7 °F 58.8 °F 30.07 in NW 4.0 mph 6.0 mph 46 % 0.00 in
16:53 81.1 °F 59.0 °F 30.07 in WNW 1.0 mph 6.0 mph 47 % 0.00 in
16:58 81.1 °F 59.0 °F 30.06 in NNW 5.0 mph 6.0 mph 47 % 0.00 in
17:03 81.1 °F 59.0 °F 30.06 in NW 1.0 mph 6.0 mph 47 % 0.00 in
17:08 81.1 °F 59.0 °F 30.06 in NW 3.0 mph 5.0 mph 47 % 0.00 in
17:13 81.3 °F 59.2 °F 30.06 in NNW 1.0 mph 6.0 mph 47 % 0.00 in
17:18 81.3 °F 59.7 °F 30.06 in NNW 1.0 mph 6.0 mph 48 % 0.00 in
17:23 81.1 °F 59.5 °F 30.06 in WSW 3.0 mph 6.0 mph 48 % 0.00 in
17:28 80.8 °F 59.9 °F 30.06 in NNW 4.0 mph 4.0 mph 49 % 0.00 in
17:33 80.8 °F 59.2 °F 30.06 in West 2.0 mph 4.0 mph 48 % 0.00 in
17:34 80.8 °F 59.2 °F 30.06 in North 5.0 mph 5.0 mph 48 % 0.00 in
17:39 80.8 °F 59.9 °F 30.06 in NE 1.0 mph 5.0 mph 49 % 0.00 in
17:44 80.6 °F 59.7 °F 30.06 in Calm   5.0 mph 49 % 0.00 in
17:49 80.4 °F 59.5 °F 30.06 in WNW 2.0 mph 5.0 mph 49 % 0.00 in
17:54 80.2 °F 59.9 °F 30.06 in WNW 2.0 mph 6.0 mph 50 % 0.00 in
17:59 79.9 °F 60.1 °F 30.06 in NW 3.0 mph 6.0 mph 51 % 0.00 in
18:04 79.5 °F 59.7 °F 30.06 in NW 4.0 mph 6.0 mph 51 % 0.00 in
18:09 79.3 °F 60.3 °F 30.06 in NNW 3.0 mph 6.0 mph 52 % 0.00 in
18:19 79.0 °F 60.4 °F 30.06 in WNW 2.0 mph 5.0 mph 53 % 0.00 in
18:24 78.6 °F 60.1 °F 30.06 in NW 3.0 mph 5.0 mph 53 % 0.00 in
18:29 78.4 °F 59.9 °F 30.06 in NW 2.0 mph 5.0 mph 53 % 0.00 in
18:34 78.1 °F 59.5 °F 30.06 in NW 2.0 mph 5.0 mph 53 % 0.00 in
18:39 78.1 °F 60.6 °F 30.05 in NNW 1.0 mph 5.0 mph 55 % 0.00 in
18:44 77.7 °F 60.3 °F 30.05 in NNW 2.0 mph 5.0 mph 55 % 0.00 in
18:49 77.4 °F 59.9 °F 30.05 in NNW 2.0 mph 4.0 mph 55 % 0.00 in
18:54 77.2 °F 60.3 °F 30.05 in NW 1.0 mph 3.0 mph 56 % 0.00 in
18:59 76.8 °F 59.9 °F 30.05 in NNW 1.0 mph 3.0 mph 56 % 0.00 in
19:04 76.5 °F 60.1 °F 30.05 in NNW 1.0 mph 3.0 mph 57 % 0.00 in
19:09 76.3 °F 59.9 °F 30.05 in Calm   4.0 mph 57 % 0.00 in
19:14 76.1 °F 60.3 °F 30.05 in WNW 3.0 mph 4.0 mph 58 % 0.00 in
19:19 75.9 °F 60.1 °F 30.05 in NW 2.0 mph 4.0 mph 58 % 0.00 in
19:24 75.6 °F 59.7 °F 30.06 in NW 2.0 mph 4.0 mph 58 % 0.00 in
19:29 75.4 °F 59.5 °F 30.06 in WNW 1.0 mph 4.0 mph 58 % 0.00 in
19:34 75.0 °F 59.7 °F 30.06 in NW 1.0 mph 5.0 mph 59 % 0.00 in
19:39 74.8 °F 59.5 °F 30.06 in NW 1.0 mph 5.0 mph 59 % 0.00 in
19:44 74.7 °F 59.9 °F 30.06 in NNW 1.0 mph 5.0 mph 60 % 0.00 in
19:49 74.5 °F 59.7 °F 30.06 in Calm   3.0 mph 60 % 0.00 in
19:54 74.1 °F 59.4 °F 30.06 in NW 1.0 mph 3.0 mph 60 % 0.00 in
19:59 73.9 °F 59.7 °F 30.06 in Calm   3.0 mph 61 % 0.00 in
20:04 73.6 °F 59.4 °F 30.06 in Calm   2.0 mph 61 % 0.00 in
20:09 73.4 °F 59.5 °F 30.06 in Calm   2.0 mph 62 % 0.00 in
20:14 73.0 °F 60.1 °F 30.06 in Calm   1.0 mph 64 % 0.00 in
20:19 72.9 °F 60.4 °F 30.06 in NNW 1.0 mph 1.0 mph 65 % 0.00 in
20:24 72.7 °F 60.3 °F 30.06 in Calm   2.0 mph 65 % 0.00 in
20:29 72.3 °F 60.3 °F 30.06 in Calm   2.0 mph 66 % 0.00 in
20:34 72.3 °F 60.3 °F 30.06 in NW 1.0 mph 2.0 mph 66 % 0.00 in
20:39 72.3 °F 60.3 °F 30.06 in NW 1.0 mph 2.0 mph 66 % 0.00 in
20:49 72.1 °F 60.6 °F 30.06 in WNW 1.0 mph 2.0 mph 67 % 0.00 in
20:54 72.0 °F 60.4 °F 30.07 in North 1.0 mph 2.0 mph 67 % 0.00 in
20:59 71.8 °F 60.6 °F 30.07 in NW 1.0 mph 2.0 mph 68 % 0.00 in
21:04 71.8 °F 60.6 °F 30.07 in Calm   2.0 mph 68 % 0.00 in
21:09 71.4 °F 60.8 °F 30.07 in Calm   2.0 mph 69 % 0.00 in
21:14 71.2 °F 60.6 °F 30.07 in Calm   2.0 mph 69 % 0.00 in
21:19 70.9 °F 60.6 °F 30.07 in Calm   1.0 mph 70 % 0.00 in
21:24 70.5 °F 60.3 °F 30.07 in Calm   1.0 mph 70 % 0.00 in
21:29 70.3 °F 60.4 °F 30.07 in Calm   1.0 mph 71 % 0.00 in
21:34 70.2 °F 60.6 °F 30.07 in Calm   1.0 mph 72 % 0.00 in
21:39 70.0 °F 60.6 °F 30.07 in Calm   1.0 mph 72 % 0.00 in
21:44 69.8 °F 60.8 °F 30.07 in Calm   1.0 mph 73 % 0.00 in
21:50 69.8 °F 60.8 °F 30.07 in Calm   1.0 mph 73 % 0.00 in
21:55 69.8 °F 60.8 °F 30.07 in Calm   1.0 mph 73 % 0.00 in
22:00 69.6 °F 60.6 °F 30.07 in Calm   1.0 mph 73 % 0.00 in
22:05 69.3 °F 60.6 °F 30.07 in Calm   1.0 mph 74 % 0.00 in
22:10 69.1 °F 60.8 °F 30.07 in Calm     75 % 0.00 in
22:15 68.9 °F 60.6 °F 30.07 in Calm     75 % 0.00 in
22:20 68.7 °F 60.4 °F 30.07 in Calm     75 % 0.00 in
22:21 68.7 °F 60.4 °F 30.07 in Calm   1.0 mph 75 % 0.00 in
22:26 68.5 °F 60.3 °F 30.07 in Calm   1.0 mph 75 % 0.00 in
22:34 68.4 °F 60.1 °F 30.07 in Calm   1.0 mph 75 % 0.00 in
22:39 68.2 °F 59.9 °F 30.07 in Calm     75 % 0.00 in
22:44 67.8 °F 59.5 °F 30.07 in Calm     75 % 0.00 in
22:49 67.6 °F 59.7 °F 30.07 in Calm     76 % 0.00 in
22:54 67.5 °F 60.1 °F 30.07 in Calm     77 % 0.00 in
23:04 67.5 °F 60.1 °F 30.07 in Calm     77 % 0.00 in
23:09 67.5 °F 60.4 °F 30.07 in Calm     78 % 0.00 in
23:14 67.6 °F 60.3 °F 30.07 in Calm     77 % 0.00 in
23:16 67.5 °F 60.1 °F 30.07 in Calm     77 % 0.00 in
23:21 67.5 °F 60.4 °F 30.07 in Calm   1.0 mph 78 % 0.00 in
23:26 67.5 °F 60.4 °F 30.07 in Calm   1.0 mph 78 % 0.00 in
23:31 67.5 °F 60.4 °F 30.07 in Calm   1.0 mph 78 % 0.00 in
23:36 67.5 °F 60.4 °F 30.07 in Calm   1.0 mph 78 % 0.00 in
23:41 67.5 °F 60.4 °F 30.07 in Calm   1.0 mph 78 % 0.00 in
23:46 67.3 °F 60.3 °F 30.07 in Calm   1.0 mph 78 % 0.00 in
23:51 66.9 °F 59.9 °F 30.07 in Calm   1.0 mph 78 % 0.00 in
23:56 66.7 °F 60.1 °F 30.07 in Calm     79 % 0.00 in
Spring, Texas: Villages of Bridgestone
Compliments of Weather Underground - 2.75 mb

Script developed by  Jim McMurry - jmcmurry@mwt.net Adapted for the template by  Wim van der Kuil - Leuven-Template.eu

You find our weather info also at:

UK Metoffice

WeatherCloud

Weather Underground

Mid-South Weather Network

AWEKAS

Citizen Weather Observer Program (CWOP)

HAMweather, WeatherForYou, PWS Weather

Equipment we use:

Weather-station
Davis Vantage Vue

Weather-program
Meteohub

Weather-server
Debian 7.9 x86 (Guest)

Provider
DreamHost

Davis Vantage Vue

Meteohub

Debian 7.9 x86 (Guest)

DreamHost